Location: Unspecified
(44.0704°N, 88.6889°W)
Time: 02:58:16
(UTC+02:00)

Okean 3 - Pass Details

Date: 01 April 2019
Orbit: 577 x 600 km, 82.5° (Epoch: 17 October)

Event Time Altitude Azimuth Distance (km) Brightness Sun altitude
Exits shadow 11:40:50 48° 201° (SSW) 789 3.7 -20.5°
Maximum altitude 11:41:59 79° 278° (W) 616 3.3 -20.4°
Drops below altitude 10° 11:46:19 10° 6° (N) 1,949 6.5 -19.7°
Sets 11:48:32 0° 8° (N) 2,855 7.5 -19.3°
